This is the latest recevied weather packets stored in our database for station/object K7OWW-2. If no packets are shown the sender has not sent any weather packets the latest 10 day(s).
| Time | Temp. | Humidity | Pressure | Rain* | Wind** | Luminosity | Snow |
|---|---|---|---|---|---|---|---|
| 1787502551 | 16.11° C | 59% | 1018.5 hPa | 0 mm | - | - | - |
| 1787501951 | 15.56° C | 60% | 1018.6 hPa | 0 mm | - | - | - |
| 1787501654 | 15° C | 63% | 1018.7 hPa | 0 mm | - | - | - |
| 1787501351 | 14.44° C | 68% | 1018.7 hPa | 0 mm | - | - | - |
| 1787500751 | 13.33° C | 71% | 1018.8 hPa | 0 mm | - | - | - |
| 1787500151 | 12.22° C | 74% | 1018.9 hPa | 0 mm | - | - | - |
| 1787499854 | 11.67° C | 78% | 1018.9 hPa | 0 mm | - | - | - |
| 1787499551 | 11.11° C | 81% | 1018.8 hPa | 0 mm | - | - | - |
| 1787498951 | 9.44° C | 88% | 1018.8 hPa | 0 mm | - | - | - |
| 1787498374 | 7.78° C | 91% | 1018.9 hPa | 0 mm | - | - | - |
| 1787498054 | 6.67° C | 92% | 1018.8 hPa | 0 mm | - | - | - |
| 1787497751 | 5.56° C | 91% | 1018.9 hPa | 0 mm | - | - | - |
| 1787497151 | 4.44° C | 92% | 1018.8 hPa | 0 mm | - | - | - |
| 1787496551 | 3.33° C | 92% | 1018.8 hPa | 0 mm | - | - | - |
| 1787496254 | 2.78° C | 93% | 1018.8 hPa | 0 mm | - | - | - |
| 1787495951 | 2.78° C | 93% | 1018.7 hPa | 0 mm | - | - | - |
| 1787495351 | 1.67° C | 92% | 1018.6 hPa | 0 mm | - | - | - |
| 1787494751 | 1.67° C | 92% | 1018.7 hPa | 0 mm | - | - | - |
| 1787494454 | 1.11° C | 92% | 1018.7 hPa | 0 mm | - | - | - |
| 1787494151 | 1.11° C | 91% | 1018.6 hPa | 0 mm | - | - | - |
| 1787493552 | 1.11° C | 91% | 1018.5 hPa | 0 mm | - | - | - |
| 1787492952 | 1.11° C | 91% | 1018.5 hPa | 0 mm | - | - | - |
| 1787492654 | 1.11° C | 91% | 1018.5 hPa | 0 mm | - | - | - |
| 1787492351 | 1.67° C | 91% | 1018.5 hPa | 0 mm | - | - | - |
| 1787491752 | 1.67° C | 91% | 1018.4 hPa | 0 mm | - | - | - |
* Rain latest hour (hover to see other rain measurements)
** Current wind speed in m/s (hover to see current wind gust speed)